AirNav   Air Wisconsin Up To $57,000 Bonus
 
 1247 users online  

0MN0 Winner's Landing Seaplane Base
St Paul Park, Minnesota, USA

GOING TO ST PAUL PARK?


FAA INFORMATION EFFECTIVE 15 JULY 2021

Location

FAA Identifier: 0MN0
Lat/Long: 44-47-48.8800N 092-59-02.7630W
44-47.814667N 092-59.046050W
44.7969111,-92.9841008
(estimated)
Elevation: 690 ft. / 210 m (estimated)
Variation: 03E (1985)
From city: 5 miles S of ST PAUL PARK, MN
Time zone: UTC -5 (UTC -6 during Standard Time)
Zip code: 55071

Seaplane Base Operations

Seaplane Base use: Private use, PERSONAL USE ONLY.
Activation date: 06/1986
Control tower: no
ARTCC: MINNEAPOLIS CENTER
FSS: PRINCETON FLIGHT SERVICE STATION
Attendance: 
WILL BE USED IN THE WINTER ON THE ICE.
Wind indicator: yes
Segmented circle: no

Seaplane Base Communications

WX AWOS-3 at SGS (4 nm NW): 119.425 (651-457-8120)
WX ASOS at STP (9 nm N): 118.35 (651-312-8888)
WX ASOS at MSP (11 nm NW): PHONE 612-713-4174
WX AWOS-3 at 21D (13 nm NE): 120.075 (651-779-5949)
WX AWOS-3 at LVN (15 nm SW): 118.0 (952-469-5850)
WX AWOS-3 at SYN (19 nm S): 119.35 (507-664-3806)

Nearby radio navigation aids

VOR radial/distance  VOR name  Freq  Var
MSPr117/12.3MINNEAPOLIS VOR/DME115.3002E
FGTr034/13.1FARMINGTON VORTAC115.7006E
FCMr094/19.6FLYING CLOUD VOR/DME117.7001E
GEPr136/26.7GOPHER VORTAC117.3006E
FOWr023/39.2HALFWAY VOR/DME111.2002E

Seaplane Base Services

Parking: buoy

Runway Information

Runway 9W/27W

Dimensions: 5500 x 700 ft. / 1676 x 213 m
Surface: water
RUNWAY 9W  RUNWAY 27W
Traffic pattern: rightleft
Obstructions: trees, 50 ft. from runway
ALSO PLINE.
road, 15 ft. from runway
ALSO PLINE.

Seaplane Base Ownership and Management from official FAA records

Ownership: Privately-owned
Owner: L. THOMAS NORTON
10760 ISLAND DR
ST PAUL PARK, MN 55071
Phone (651) 459-1423
CELL: 651-592-5546
Manager: L. THOMAS NORTON
10760 ISLAND DR
ST PAUL PARK, MN 55071
Phone (651) 459-1423
CELL # 651-592-5546

Seaplane Base Operational Statistics

Aircraft based on the field: 1
Single engine airplanes: 1
    

Additional Remarks

UNICOM FREQ 122.95 IS AT ST PAUL DOWNTOWN HOLMAN FLD.
FOR CD CTC MINNEAPOLIS ARTCC AT 651-463-5588.

Instrument Procedures

There are no published instrument procedures at 0MN0.

Some nearby airports with instrument procedures:

KSGS - South St Paul Municipal Airport-Richard E Fleming Field (4 nm NW)
KSTP - St Paul Downtown Airport Holman Field (9 nm N)
KMSP - Minneapolis-St Paul International/Wold-Chamberlain Airport (11 nm NW)
21D - Lake Elmo Airport (13 nm NE)
KLVN - Airlake Airport (15 nm SW)
 
Loc | Ops | Rwys | IFR | FBO | Links
Com | Nav | Svcs | Stats | Notes
Area around 0MN0 (Winner's Landing Seaplane Base)
 
Road maps at: MapQuest Bing Google
 
Aerial photo
No photo
 
Sectional chart

 
Airport distance calculator
Flying to Winner's Landing Seaplane Base? Find the distance to fly.

From to 0MN0

Sunrise and sunset
Times for 28-Jul-2021
 Local
(UTC-5)
 Zulu
(UTC)
Morning civil twilight05:2010:20
Sunrise05:5410:54
Sunset20:4201:42
Evening civil twilight21:1602:16

Current date and time
Zulu (UTC)  28-Jul-2021 22:43:32
Local (UTC-5)  28-Jul-2021 17:43:32
 
METAR
KSGS 
8nm NW 
282215Z AUTO 19012G15KT 10SM CLR 32/21 A2986 RMK AO2 T03180211
KSTP 
9nm N 
282153Z 18011G20KT 10SM CLR 32/22 A2986 RMK AO2 SLP104 T03220222
KMSP 
12nm NW 
282153Z 21012G26KT 10SM BKN180 BKN250 32/23 A2987 RMK AO2 PK WND 19026/2146 SLP106 T03220228
K21D 
13nm NE 
282215Z AUTO 20009KT 10SM CLR 30/21 A2989 RMK AO2
KLVN 
15nm SW 
282215Z AUTO 18006KT 10SM SCT100 30/23 A2988 RMK AO2
KSYN 
19nm S 
282215Z AUTO 18008KT 10SM CLR 30/24 A2989 RMK AO2 T03030236
TAF
KMSP 
12nm NW 
282051Z 2821/2924 19011G20KT P6SM SCT150 BKN250 FM290000 23011KT P6SM SCT080 BKN120 TEMPO 2900/2904 4SM -SHRA BR BKN050 FM291100 36007KT P6SM SCT150 FM291400 01008KT P6SM FEW200
NOTAMs
Click for the latest NOTAMs
NOTAMs are issued by the DoD/FAA and will open in a separate window not controlled by AirNav.

 

 
 

Would you like to see your business listed on this page?

 If your business provides an interesting product or service to pilots, flight crews, aircraft, or users of the Winner's Landing Seaplane Base, you should consider listing it here.  To start the listing process, click on the button below
 
Add a business
 

Other Pages about Winner's Landing Seaplane Base

Update a link
 
Copyright © AirNav, LLC. All rights reserved. Privacy Policy  Contact